CAPE
0 0 0 0 0 0 0 0 0 0 0 0 0 0 0 0 0 0 0 0 0 0 12 446 1202 1322 1192 1200 1145 1021 807 581 750 1262 1428 1324 1145 966 927 920 867 818 865 763 614 939 1062 830 622
0 0 0 0 0 0 0 0 0 0 0 0 0 0 0 0 0 0 0 0 0 24 197 491 999 1437 1286 1291 1115 970 843 662 701 1229 1424 1393 1227 1062 945 880 662 678 904 605 675 828 710 561 390
0 0 0 0 0 0 0 0 0 0 0 0 0 0 0 0 0 0 0 0 0 0 210 582 982 1292 1351 1344 1207 1069 939 749 744 1042 1401 1351 1226 1054 1057 887 551 831 851 700 613 676 578 376 248
0 0 0 0 0 0 0 0 0 0 0 0 0 0 0 0 0 0 0 0 0 41 487 691 894 1081 1206 1198 1171 1127 999 823 935 831 1268 1347 1256 1180 1163 992 752 839 771 575 595 516 480 314 180
0 0 0 0 0 0 0 0 0 0 0 0 0 0 0 0 0 0 0 0 0 118 665 815 945 1121 1265 1114 1139 1111 1080 1058 877 875 914 1195 1246 1173 1098 1057 978 857 741 647 467 271 369 248 141
0 0 0 0 0 0 0 0 0 0 0 0 0 0 0 0 0 0 0 0 0 195 722 927 969 1057 1145 1245 1210 1087 1071 1195 953 955 876 863 957 955 931 950 1020 922 713 511 364 216 196 230 136
0 0 0 0 0 0 0 0 0 0 0 0 0 0 0 0 0 0 0 0 0 12 669 853 968 1106 1208 1229 1225 1121 1005 1169 1256 1025 946 817 731 748 816 834 952 782 712 402 232 112 182 131 63
0 0 0 0 0 0 0 0 0 0 0 0 0 0 0 0 0 0 0 0 0 0 345 770 931 1011 1278 1170 1157 1098 1033 989 1116 1080 862 645 598 590 558 730 792 713 661 382 207 86 110 77 1
0 0 0 0 0 0 0 0 0 0 0 0 0 0 0 0 0 0 0 0 0 0 0 691 815 1066 1055 1066 1050 1054 1000 921 892 950 838 568 504 406 346 494 565 558 504 302 112 40 43 0 0
0 0 0 0 0 0 0 0 0 0 0 0 0 0 0 0 0 0 0 0 0 0 0 0 521 795 1004 1060 1148 1106 1080 974 761 689 720 538 399 395 306 322 348 401 315 138 26 18 0 0 0
0 0 0 0 0 0 0 0 0 0 0 0 0 0 0 0 0 0 0 0 0 0 0 0 117 397 538 1129 1079 977 977 912 743 650 530 707 347 242 209 223 211 127 94 5 1 0 0 0 0
0 0 0 0 0 0 0 0 0 0 0 0 0 0 0 0 0 0 0 0 0 0 0 0 0 228 470 984 1017 900 798 746 715 667 600 448 272 176 138 142 80 6 2 0 0 0 0 0 0
0 0 0 0 0 0 0 0 0 0 0 0 0 0 0 0 0 0 0 0 0 0 0 0 0 0 226 521 1014 927 732 697 574 655 662 506 265 128 78 36 7 3 0 0 0 0 0 0 0
0 0 0 0 0 0 0 0 0 0 0 0 0 0 0 0 0 0 0 0 0 0 0 0 0 0 0 253 553 677 719 586 506 435 464 402 131 46 15 2 3 3 2 0 0 0 0 0 0
0 0 0 0 0 0 0 0 0 0 0 0 0 0 0 0 0 0 0 0 0 0 0 0 0 0 0 16 342 595 648 586 376 387 273 223 51 1 2 3 3 4 2 0 0 0 0 0 0
0 0 0 0 0 0 0 0 0 0 0 0 0 0 0 0 0 0 0 0 0 0 0 0 0 0 0 4 297 365 449 365 279 183 95 74 14 2 2 3 3 3 0 0 0 0 0 0 0
0 0 0 0 0 0 0 0 0 0 0 0 0 0 0 0 0 0 0 0 0 0 0 0 0 0 0 0 99 344 448 297 245 72 41 11 3 2 2 3 4 1 4 0 0 0 0 0 0
0 0 0 0 0 0 0 0 0 0 0 0 0 0 0 0 0 0 0 0 0 0 0 0 0 0 0 0 57 298 306 275 186 44 13 1 1 2 2 2 0 0 2 0 0 0 0 0 0
0 0 0 0 0 0 0 0 0 0 0 0 0 0 0 0 0 0 0 0 0 0 0 0 0 0 0 0 25 219 262 219 71 1 2 2 2 3 3 3 4 6 0 0 0 0 0 0 0
0 0 0 0 0 0 0 0 0 0 0 0 0 0 0 0 0 0 0 0 0 0 0 0 0 0 0 0 4 242 371 206 44 4 2 2 2 2 2 3 3 2 1 0 0 0 0 0 0
0 0 0 0 0 0 0 0 0 0 0 0 0 0 0 0 0 0 0 0 0 0 0 0 0 0 0 0 0 144 345 239 71 12 2 2 2 2 3 0 1 2 0 0 0 0 0 0 0
0 0 0 0 0 0 0 0 0 0 0 0 0 0 0 0 0 0 0 0 0 0 0 0 0 0 0 0 0 102 229 234 46 3 2 1 2 3 3 3 2 0 0 0 0 0 0 0 0
0 0 0 0 0 0 0 0 0 0 0 0 0 0 0 0 0 0 0 0 0 0 0 0 0 0 0 0 0 149 174 167 58 1 1 1 1 1 2 3 0 0 0 0 0 0 0 0 0
0 0 0 0 0 0 0 0 0 0 0 0 0 0 0 0 0 0 0 0 0 0 0 0 0 0 0 0 0 194 204 142 37 6 2 2 2 1 1 2 3 1 0 0 0 0 0 0 0
0 0 0 0 0 0 0 0 0 0 0 0 0 0 0 0 0 0 0 1 1 0 0 0 0 0 0 0 0 187 141 125 45 8 2 3 3 2 2 1 2 1 0 0 0 0 0 0 0
0 0 0 0 0 0 0 0 0 0 0 0 0 0 0 0 0 0 0 0 0 1 0 0 0 0 0 0 0 111 170 95 48 17 0 1 0 2 2 0 1 0 1 0 0 0 0 0 0
0 0 0 0 0 0 0 0 0 0 0 0 0 0 0 0 0 0 0 1 1 1 1 1 0 0 0 34 40 100 175 113 26 0 0 0 0 2 2 2 2 3 0 0 0 0 0 0 0
0 0 0 0 0 0 0 0 0 0 0 0 0 0 0 0 0 0 0 0 0 1 2 3 4 0 0 0 75 147 173 96 47 6 0 0 1 2 2 0 0 1 0 0 0 0 0 0 0
0 0 0 0 0 0 0 0 0 0 0 0 0 0 0 0 0 0 0 0 0 0 1 3 3 2 1 1 0 0 0 6 30 11 4 3 0 0 1 0 0 0 0 0 0 0 0 0 0
0 0 0 0 0 0 0 0 0 0 0 0 0 0 0 0 0 0 0 0 0 1 1 2 4 2 4 3 1 1 0 0 0 0 0 0 0 0 0 0 0 0 0 0 3 2 1 0 0
CIN
0 0 0 0 0 0 0 0 0 0 0 0 0 0 0 0 0 0 0 0 0 0 -229 -269 -169 -139 -133 -84 -64 -64 -58 -83 -53 -28 -41 -41 -43 -45 -47 -29 -18 -7 0 -10 -9 0 0 0 -9
0 0 0 0 0 0 0 0 0 0 0 0 0 0 0 0 0 0 0 0 0 -152 -253 -263 -202 -126 -117 -80 -59 -57 -47 -60 -62 -21 -26 -28 -29 -33 -30 -36 -43 -19 0 -14 -5 -2 -7 -14 -34
0 0 0 0 0 0 0 0 0 0 0 0 0 0 0 0 0 0 0 0 0 0 -238 -254 -203 -147 -102 -66 -34 -25 -24 -35 -47 -25 -14 -23 -26 -27 -20 -23 -57 -5 -1 -1 -9 -8 -21 -44 -72
0 0 0 0 0 0 0 0 0 0 0 0 0 0 0 0 0 0 0 0 0 -113 -213 -239 -221 -186 -143 -108 -54 -11 0 -5 -6 -25 -5 -9 -16 -14 -6 -10 -19 -1 -2 -4 -10 -19 -38 -67 -89
0 0 0 0 0 0 0 0 0 0 0 0 0 0 0 0 0 0 0 0 0 -219 -155 -207 -194 -151 -127 -126 -81 -27 -1 0 -2 -11 -16 -7 -8 -9 -7 -3 0 -1 -3 -3 -15 -66 -39 -73 -92
0 0 0 0 0 0 0 0 0 0 0 0 0 0 0 0 0 0 0 0 0 -181 -114 -90 -162 -165 -138 -89 -90 -63 -19 -1 -4 -2 -13 -22 -19 -21 -17 -6 0 0 -2 -14 -16 -65 -81 -69 -76
0 0 0 0 0 0 0 0 0 0 0 0 0 0 0 0 0 0 0 0 0 -23 -89 -71 -75 -93 -88 -82 -61 -76 -51 -5 -1 -1 -5 -21 -29 -32 -20 -8 0 -1 0 -17 -32 -65 -70 -89 -104
0 0 0 0 0 0 0 0 0 0 0 0 0 0 0 0 0 0 0 0 0 0 -160 -60 -52 -33 -35 -42 -35 -46 -55 -30 -3 -3 -7 -27 -36 -39 -36 -7 0 0 0 -5 -48 -43 -78 -118 -75
0 0 0 0 0 0 0 0 0 0 0 0 0 0 0 0 0 0 0 0 0 0 0 -43 -70 -35 -16 -46 -43 -13 -13 -28 -21 -9 -9 -31 -33 -42 -48 -23 -16 -3 -3 -20 -60 -82 -63 0 0
0 0 0 0 0 0 0 0 0 0 0 0 0 0 0 0 0 0 0 0 0 0 0 0 -35 -60 -22 -13 -18 -11 -1 0 -20 -23 -20 -24 -33 -33 -47 -44 -38 -19 -18 -55 -73 -130 0 0 0
0 0 0 0 0 0 0 0 0 0 0 0 0 0 0 0 0 0 0 0 0 0 0 0 -131 -11 -14 -3 -3 -12 -7 -1 -3 -20 -32 -4 -40 -55 -53 -43 -30 -60 -52 -103 0 0 0 0 0
0 0 0 0 0 0 0 0 0 0 0 0 0 0 0 0 0 0 0 0 0 0 0 0 0 -17 -9 -3 -6 -5 -7 -12 -4 -12 -12 -16 -38 -47 -42 -47 -59 -19 0 0 0 0 0 0 0
0 0 0 0 0 0 0 0 0 0 0 0 0 0 0 0 0 0 0 0 0 0 0 0 0 0 -17 -2 -1 -1 -6 -7 -22 -11 -4 -2 -29 -58 -65 -105 -192 0 0 0 0 0 0 0 0
0 0 0 0 0 0 0 0 0 0 0 0 0 0 0 0 0 0 0 0 0 0 0 0 0 0 0 -7 -4 -1 -2 -16 -20 -25 -39 -35 -101 -127 -153 0 0 0 0 0 0 0 0 0 0
0 0 0 0 0 0 0 0 0 0 0 0 0 0 0 0 0 0 0 0 0 0 0 0 0 0 0 -2 -4 0 0 -5 -13 -23 -58 -63 -157 0 0 0 0 0 0 0 0 0 0 0 0
0 0 0 0 0 0 0 0 0 0 0 0 0 0 0 0 0 0 0 0 0 0 0 0 0 0 0 -2 -8 -4 -10 -7 -16 -49 -101 -131 -110 0 0 0 0 0 0 0 0 0 0 0 0
0 0 0 0 0 0 0 0 0 0 0 0 0 0 0 0 0 0 0 0 0 0 0 0 0 0 0 0 -6 -8 -23 -35 -18 -59 -163 -204 -73 0 0 0 0 0 0 0 0 0 0 0 0
0 0 0 0 0 0 0 0 0 0 0 0 0 0 0 0 0 0 0 0 0 0 0 0 0 0 0 0 -3 -8 -14 -17 -25 -60 -117 0 0 0 0 0 0 0 0 0 0 0 0 0 0
0 0 0 0 0 0 0 0 0 0 0 0 0 0 0 0 0 0 0 0 0 0 0 0 0 0 0 0 -38 -1 -1 -11 -27 0 0 0 0 0 0 0 0 0 0 0 0 0 0 0 0
0 0 0 0 0 0 0 0 0 0 0 0 0 0 0 0 0 0 0 0 0 0 0 0 0 0 0 0 -8 -1 0 -23 -47 -41 0 0 0 0 0 0 0 0 0 0 0 0 0 0 0
0 -1 0 0 0 0 0 0 0 0 0 0 0 0 0 0 0 0 0 0 0 0 0 0 0 0 0 0 0 -8 -2 -7 -17 -94 0 0 0 0 0 0 0 0 0 0 0 0 0 0 0
0 0 0 0 0 0 0 0 0 0 0 0 0 0 0 0 0 0 0 0 0 0 0 0 0 0 0 0 0 -7 0 0 -16 -20 0 0 0 0 0 0 0 0 0 0 0 0 0 0 0
0 0 0 0 0 0 0 0 0 0 0 0 0 0 0 0 0 0 0 0 0 0 0 0 0 0 0 0 0 -8 -2 -6 -20 -2 0 0 0 0 0 0 0 0 0 0 0 0 0 0 0
0 0 0 0 0 0 0 0 0 0 0 0 0 0 0 0 0 0 0 0 0 0 0 0 0 0 0 0 0 -7 -4 -4 -20 -84 0 0 0 0 0 0 0 0 0 0 0 0 0 0 0
0 0 0 0 0 0 0 0 0 0 0 0 0 0 0 0 0 0 0 -1 0 0 0 0 0 0 0 0 0 -15 -27 -6 -17 -74 0 0 0 0 0 0 0 0 0 0 0 0 0 0 0
0 0 0 0 0 0 0 0 0 0 0 0 0 0 0 0 0 0 0 0 0 0 0 0 0 0 0 -6 0 -32 -31 -43 -44 -42 0 -36 0 0 0 0 0 0 0 0 0 0 0 0 0
0 0 0 0 0 0 0 0 0 0 0 0 0 0 0 0 0 0 0 0 0 0 0 0 0 0 0 -93 -90 -50 -30 -42 -69 0 0 0 0 -33 0 0 0 0 0 0 0 0 0 0 0
0 0 0 0 0 0 0 0 0 0 0 0 0 0 0 0 0 0 0 0 0 0 0 0 0 0 0 0 -124 -59 -24 -52 -74 -100 0 0 0 0 0 0 0 0 0 0 0 0 0 0 0
0 0 0 0 0 0 0 0 0 0 0 0 0 0 0 0 0 0 0 0 0 0 0 0 0 0 0 0 0 0 0 -45 -91 -68 -76 -96 0 0 0 0 0 0 0 0 0 0 0 0 0
0 0 0 0 0 0 0 0 0 0 0 0 0 0 0 0 0 0 0 0 0 0 0 0 0 0 0 0 0 0 0 0 0 0 0 0 -7 0 0 0 0 0 0 0 0 0 0 0 0
Wind_Speed
25 20 17 18 28 33 43 41 35 34 32 28 24 24 28 28 27 30 17 22 21 23 15 10 11 13 14 13 13 12 13 13 12 11 12 14 14 13 13 11 9 8 6 6 5 6 6 7 9
25 20 18 22 36 44 51 40 42 37 29 27 26 29 32 36 30 31 34 27 26 25 19 11 11 13 15 14 14 13 14 14 14 13 13 14 14 14 13 12 10 8 6 6 6 5 6 6 8
22 20 22 27 38 49 53 44 43 39 36 37 36 30 32 33 27 27 31 37 35 31 21 14 12 14 16 16 16 15 15 16 16 15 15 15 15 14 13 12 11 10 8 6 6 5 6 6 7
21 22 24 35 46 47 45 42 36 38 37 36 35 42 35 33 34 32 39 41 39 34 26 19 14 15 16 17 18 18 18 18 17 18 16 16 16 15 14 13 12 11 9 7 6 6 6 5 7
22 24 35 42 48 47 40 45 45 46 40 37 34 45 43 38 36 38 38 40 38 35 30 24 18 18 18 18 19 20 20 19 19 19 19 18 17 16 15 14 13 12 10 9 7 6 5 5 6
28 27 40 49 49 45 46 42 43 45 45 47 47 49 52 40 37 39 40 40 37 35 31 31 26 22 21 20 19 20 21 22 22 21 20 19 19 18 17 16 14 13 12 10 9 7 7 6 6
31 34 45 49 55 60 48 38 43 45 47 49 43 54 51 41 42 46 45 42 40 36 34 33 32 30 26 24 22 19 22 23 23 23 22 21 21 20 19 17 16 15 13 11 10 9 8 7 7
29 34 47 49 56 64 53 47 45 47 51 39 36 45 48 41 44 45 45 42 40 37 36 35 32 32 30 29 27 23 22 24 24 24 25 24 22 22 21 19 18 17 15 13 11 10 9 8 7
26 40 53 51 51 55 51 52 46 45 53 47 44 54 52 49 50 49 48 48 44 40 36 37 33 31 33 32 31 29 27 26 27 26 26 26 25 24 23 21 19 18 17 15 13 11 11 9 8
31 43 48 43 46 55 60 56 57 57 63 65 62 58 56 57 54 54 51 49 47 44 40 38 40 35 34 33 34 33 32 32 31 30 28 28 27 26 25 23 21 20 18 16 14 13 12 11 10
34 45 44 52 51 52 61 66 56 62 74 62 67 67 65 65 64 60 56 52 50 48 45 42 41 38 37 37 36 37 36 35 35 33 31 30 29 28 26 26 24 21 20 18 17 14 14 13 12
41 38 41 49 48 51 56 59 63 62 69 62 64 65 69 67 68 65 63 59 56 52 50 45 41 41 39 38 38 38 39 38 38 36 33 31 31 29 28 27 25 23 21 20 18 18 16 16 13
41 44 46 48 51 51 52 58 64 69 65 63 62 65 69 71 67 65 63 61 60 58 52 48 45 43 42 42 41 39 40 40 40 38 35 33 32 30 29 27 26 25 24 22 21 19 18 17 15
38 41 45 47 51 49 55 57 56 65 64 64 63 65 66 69 68 67 68 68 63 60 56 51 50 46 44 44 44 43 40 41 42 40 37 35 33 31 30 29 28 28 26 24 22 22 20 19 17
38 49 49 50 49 46 42 50 51 50 56 59 60 59 62 64 65 65 66 68 63 60 58 54 50 48 47 48 45 44 42 39 42 41 39 36 34 32 31 30 31 30 27 25 23 22 20 21 18
43 42 52 43 39 39 32 56 50 46 48 57 57 57 57 61 64 63 63 64 61 59 58 56 51 50 49 47 47 46 43 40 41 42 41 39 36 33 32 31 31 29 29 28 26 23 26 20 18
37 47 45 52 42 33 30 52 51 46 47 55 56 57 56 58 59 61 58 58 59 62 60 58 53 51 51 50 49 45 43 40 40 41 39 40 37 34 32 30 27 29 29 28 24 29 23 20 19
46 45 49 52 43 46 49 51 45 42 44 48 52 52 53 56 60 59 57 60 61 62 61 61 56 53 51 50 49 45 42 40 38 39 40 40 37 34 32 30 22 19 27 25 25 27 26 23 19
39 43 48 51 44 46 42 46 57 53 48 45 45 45 47 51 54 54 56 57 60 59 58 60 59 55 51 49 49 48 47 43 42 40 38 39 37 34 33 30 24 27 29 28 28 24 24 23 20
33 40 48 45 37 34 48 55 45 53 42 38 36 36 39 44 46 49 51 54 58 60 59 58 59 57 52 48 46 46 44 42 41 39 38 38 37 35 30 28 25 22 26 26 29 27 25 24 21
31 37 41 38 46 38 40 42 48 38 29 31 33 35 37 38 44 45 47 51 54 56 57 58 58 57 54 50 47 44 40 38 41 40 40 40 37 35 35 29 27 26 27 30 26 26 27 26 24
31 29 30 29 37 42 34 49 47 35 33 35 36 38 42 43 44 45 47 49 54 58 56 56 57 55 54 51 48 47 46 44 41 40 39 38 37 37 31 28 26 24 27 29 28 25 26 25 24
25 32 26 21 20 38 37 28 42 41 33 37 39 43 44 45 46 46 44 45 47 52 54 55 56 54 52 49 48 47 44 41 38 37 37 37 37 35 30 25 25 25 27 29 29 29 27 27 25
26 33 37 27 22 26 30 27 34 26 27 37 41 43 45 48 47 45 42 40 42 42 45 50 53 55 52 50 47 47 44 39 37 35 36 36 37 35 34 26 25 26 26 29 31 30 30 28 26
26 34 27 22 23 27 32 35 10 21 29 39 48 51 51 48 45 43 40 37 36 39 41 44 48 54 51 48 46 46 42 38 36 35 32 31 33 34 36 30 30 30 29 30 33 31 29 29 29
27 21 20 25 30 42 36 19 21 19 30 40 40 43 47 43 41 38 36 34 32 35 38 40 44 49 49 46 44 43 42 38 37 34 37 26 34 32 33 30 29 26 27 27 28 34 33 31 30
22 18 20 21 25 30 23 15 18 26 43 47 44 47 43 39 36 31 33 30 28 29 33 35 38 41 42 43 42 39 39 37 36 35 33 32 32 28 30 30 29 31 23 28 30 32 31 29 29
12 26 22 22 25 29 24 9 15 38 43 49 49 44 39 35 29 30 29 26 24 22 26 27 31 35 36 36 36 36 35 34 31 29 29 30 29 26 26 27 29 28 26 25 31 32 30 30 31
19 25 18 22 19 22 28 26 24 37 44 43 38 27 29 25 25 20 24 22 19 16 18 20 23 26 30 32 31 31 30 29 29 27 26 25 27 26 26 25 25 30 30 28 25 31 33 32 31
13 21 22 25 25 11 27 16 18 26 30 34 32 15 20 12 8 18 10 19 15 13 12 14 16 20 23 25 27 25 25 24 24 26 25 24 27 26 29 28 26 25 31 31 30 29 31 29 31
Wind_Direction
318 318 317 304 286 283 277 277 283 284 287 291 294 291 285 282 285 288 308 312 316 310 305 254 231 227 214 209 209 211 211 203 208 201 188 180 177 171 165 163 161 158 152 137 127 109 89 78 76
315 314 310 296 280 276 277 278 276 280 287 298 292 288 286 282 281 286 291 310 309 306 305 275 232 224 219 214 212 212 210 205 202 208 192 188 184 180 175 170 167 168 168 155 142 124 107 94 86
312 309 294 286 279 273 277 281 281 284 284 284 287 290 287 282 290 289 295 299 299 293 293 278 240 226 225 225 222 222 217 214 205 207 200 192 190 188 185 181 176 174 178 174 156 141 124 111 98
309 302 296 281 275 277 278 285 292 289 288 285 285 281 283 284 287 291 294 296 293 289 283 272 243 230 225 227 227 228 225 220 215 208 208 201 197 195 194 192 185 184 181 187 175 161 145 128 111
307 298 285 280 277 280 282 286 287 284 286 288 287 277 278 284 291 294 298 296 292 286 277 270 251 243 236 231 229 228 227 221 218 212 210 209 206 204 202 202 200 194 188 187 184 179 172 150 132
294 294 283 279 279 279 284 288 289 286 285 282 281 279 277 285 290 293 296 294 292 286 277 268 257 248 242 239 230 228 226 222 217 215 211 209 209 208 207 205 205 203 200 193 200 192 184 170 157
291 287 281 282 282 282 288 294 288 288 285 282 284 277 277 284 290 291 289 292 290 284 278 269 263 254 248 243 237 229 225 224 221 219 216 212 212 211 210 208 208 208 207 201 206 200 190 185 165
298 290 285 284 283 282 288 289 289 287 284 289 291 279 279 287 294 291 288 287 287 286 276 269 264 257 252 248 243 237 230 225 222 220 220 219 216 215 216 212 212 213 211 205 200 199 197 189 186
302 289 284 286 287 285 290 289 290 291 284 286 285 279 283 290 291 289 287 282 282 282 282 271 263 258 252 251 248 243 240 234 228 225 224 221 225 224 223 219 212 213 209 207 203 200 214 207 199
294 290 290 292 292 290 288 289 290 288 283 279 282 281 284 286 287 284 282 279 279 277 277 277 264 258 255 253 252 246 243 241 240 236 232 231 230 229 226 222 213 214 217 215 209 200 207 212 215
301 291 296 292 294 294 290 287 289 285 279 282 281 282 281 280 279 279 277 276 275 275 274 274 268 261 255 253 252 250 246 242 242 239 236 235 234 232 227 228 224 221 220 223 220 218 215 210 209
302 301 300 298 299 297 293 292 287 286 283 286 283 282 280 278 275 275 272 272 271 272 271 270 270 262 257 253 252 251 248 243 241 239 236 235 237 233 229 225 224 221 219 221 222 221 217 218 212
304 303 303 302 301 299 296 290 287 285 288 288 285 282 278 276 275 272 270 269 268 266 268 267 267 265 258 253 252 251 248 244 241 240 237 235 235 232 230 225 221 223 222 217 216 219 215 215 218
310 307 305 303 301 301 295 293 291 288 289 286 284 282 280 276 273 271 267 264 264 263 262 265 264 263 262 254 252 251 248 246 242 240 237 235 234 231 227 227 225 224 221 219 215 214 219 219 218
311 306 306 305 304 301 305 294 292 296 293 290 287 285 281 277 274 270 266 262 261 260 258 260 262 261 259 255 250 249 248 247 243 239 238 234 233 231 226 229 228 226 221 216 213 216 225 222 227
312 310 305 313 314 309 304 294 302 302 300 294 291 289 285 279 274 271 267 262 258 256 254 256 259 259 257 256 250 248 247 247 244 241 238 236 235 232 231 228 229 225 216 221 215 214 213 217 221
316 310 308 310 319 314 309 304 306 305 303 297 292 289 287 282 277 271 267 263 258 254 252 251 254 256 255 254 251 247 246 245 243 242 240 238 235 233 234 231 229 231 217 208 211 217 214 212 219
314 311 311 311 315 311 306 305 308 308 308 303 296 293 289 284 277 271 266 263 257 252 249 248 250 253 254 254 250 245 244 243 242 242 241 240 237 233 234 231 220 210 220 215 209 217 222 222 211
315 314 314 314 314 311 310 310 297 284 309 307 302 300 297 290 283 275 268 263 255 249 247 245 245 247 251 251 246 242 242 242 242 240 240 239 237 233 233 224 225 223 219 217 213 208 211 218 216
316 316 316 319 320 317 308 301 273 295 315 317 316 314 312 306 295 280 271 263 254 248 245 244 242 243 247 249 246 242 242 240 240 239 240 238 239 235 228 213 217 217 218 214 212 210 213 226 219
319 320 321 321 304 313 315 311 309 322 330 329 329 325 322 320 305 294 280 267 255 248 244 242 241 241 243 245 245 241 241 240 239 237 237 238 239 237 228 228 223 221 218 212 206 210 218 220 228
326 335 331 326 322 313 325 312 305 322 324 324 328 329 321 315 311 301 288 271 258 250 245 242 240 240 241 242 242 237 237 236 237 235 236 238 238 238 223 220 218 216 217 218 214 213 222 219 220
331 334 330 319 310 316 321 324 308 326 325 326 327 315 316 318 308 302 294 278 263 251 245 241 239 238 239 240 240 235 236 236 236 234 236 238 238 239 234 221 221 222 217 221 219 219 221 224 225
338 337 316 326 330 327 333 333 285 341 343 332 328 330 326 319 313 304 299 286 264 255 247 241 237 236 235 237 238 232 233 233 231 233 234 236 237 239 239 234 228 220 228 225 224 223 225 227 230
353 345 346 345 341 332 336 332 337 350 345 335 319 324 321 320 311 302 301 290 267 254 248 242 236 233 232 233 235 231 230 231 231 232 235 233 236 240 241 243 238 233 234 231 231 228 229 230 233
346 357 355 340 337 294 335 351 355 4 350 344 347 342 334 332 311 303 301 292 273 256 248 242 235 231 230 229 233 232 230 231 233 234 234 246 242 246 242 241 239 238 237 238 235 236 234 234 237
356 357 352 344 342 337 349 4 6 348 328 340 351 344 342 336 316 304 309 295 278 259 247 240 234 229 228 227 231 231 230 230 233 236 241 245 244 242 240 239 241 242 247 248 243 240 236 235 236
357 331 347 351 350 346 346 311 9 309 324 342 350 352 330 322 308 314 312 295 280 263 246 238 233 227 226 227 229 232 231 230 233 236 240 243 243 245 241 240 247 245 246 250 246 244 244 242 242
350 332 342 345 356 352 345 354 3 342 343 355 4 14 314 308 309 299 305 300 278 265 246 236 230 225 224 225 226 231 231 230 231 236 239 245 242 245 244 245 248 250 250 252 245 245 246 244 246
350 334 335 340 343 359 278 268 22 9 8 8 12 306 308 303 302 306 293 301 280 262 249 237 230 222 224 223 223 229 231 230 232 238 244 245 249 251 251 252 252 255 252 251 251 249 250 253 246